Wind_Speed
24 26 28 28 27 27 27 26 25 23 24 25 26 27 25 24 21 18 17 15 15 18 19 21 19 16 17 14 8 8 7 5 5 5 5 2 3 6 7 7 7 7 6
21 23 26 25 24 23 24 25 26 27 26 26 26 26 26 26 23 21 18 16 15 17 19 20 19 17 16 10 5 7 8 4 2 5 8 5 6 7 7 9 10 9 7
20 22 23 22 24 24 22 21 21 23 24 24 26 26 25 24 24 22 21 18 17 17 19 19 18 17 16 8 5 7 6 3 1 6 9 9 9 9 6 7 8 8 7
13 16 17 19 19 19 19 20 19 19 21 21 22 25 25 24 24 23 22 18 18 17 18 18 17 17 13 7 5 7 5 3 6 7 8 10 9 9 7 7 6 7 6
6 2 4 8 12 15 16 18 20 19 19 20 20 21 23 26 26 26 24 18 18 17 17 18 17 16 12 8 5 6 4 5 8 8 8 9 9 8 7 6 5 5 5
15 16 14 13 12 11 11 13 17 21 21 22 23 22 22 22 24 22 21 17 17 17 17 18 17 16 11 8 6 5 4 3 7 9 9 8 9 8 7 7 6 6 5
20 18 17 15 14 13 14 15 17 17 18 21 25 25 24 23 20 20 20 17 18 18 17 17 17 15 11 8 6 7 7 6 6 5 5 6 7 7 6 7 5 4 5
19 18 18 17 15 16 17 18 19 18 20 21 20 20 25 23 21 20 20 19 18 18 19 18 18 15 10 8 6 9 10 8 9 11 9 7 5 7 6 6 5 3 6
24 26 26 26 24 24 23 22 22 23 22 22 23 24 23 22 22 22 22 20 17 14 19 22 20 16 11 11 10 11 12 11 12 11 9 10 9 9 8 6 5 4 6
25 26 28 30 29 28 27 27 26 25 25 23 22 22 23 24 26 27 26 18 7 15 30 29 24 17 13 14 13 13 14 13 12 11 10 11 12 11 9 6 4 3 5
25 27 27 27 27 28 28 27 27 26 26 25 20 18 20 22 24 29 33 35 35 42 33 40 28 21 15 17 16 15 14 14 13 13 11 13 14 14 12 10 8 5 5
27 34 34 28 24 24 25 27 27 26 24 23 20 18 18 19 25 27 31 41 39 32 38 36 25 21 17 19 19 18 20 17 15 14 14 15 16 15 15 12 10 10 7
31 27 25 25 26 26 27 28 28 26 23 20 18 20 19 21 23 19 18 32 38 35 29 32 21 20 18 19 17 17 22 19 18 16 14 15 13 14 14 15 14 13 9
32 32 33 32 30 28 29 30 31 28 25 22 20 21 22 22 22 20 22 25 24 32 32 34 23 22 20 21 20 21 21 21 17 15 15 16 16 17 15 14 14 15 11
33 32 34 34 33 32 30 31 31 28 26 25 22 23 27 25 22 20 21 20 25 34 36 31 27 27 25 24 25 23 22 21 20 18 17 18 18 17 15 16 14 13 12
35 36 33 32 34 33 30 30 29 28 27 27 25 26 29 29 29 29 25 26 30 31 38 31 29 30 28 25 28 26 25 23 21 21 20 18 15 14 15 16 17 14 12
33 33 32 29 32 32 31 31 35 31 27 26 26 26 28 29 30 32 36 35 25 24 28 37 26 29 28 24 26 26 26 23 22 24 22 19 16 15 14 14 13 14 14
31 32 31 30 29 30 30 30 31 31 31 27 25 25 26 27 28 30 31 37 34 32 29 30 29 29 27 27 26 26 25 22 24 25 25 20 17 16 19 19 16 14 14
28 32 32 32 30 29 29 28 30 31 31 30 26 25 25 24 25 27 27 32 32 33 32 31 29 28 28 26 25 23 22 23 24 25 22 20 18 16 16 18 18 16 15
31 31 31 32 34 34 31 31 29 30 31 28 26 27 21 21 21 18 22 25 27 28 30 31 28 26 25 25 24 21 21 23 23 22 19 17 16 18 19 20 21 20 19
33 33 30 32 34 35 30 29 30 30 31 26 25 27 19 19 20 20 20 27 26 26 24 23 22 22 24 24 25 22 22 21 23 21 19 20 17 17 19 21 23 23 22
32 30 28 28 28 29 29 26 26 27 25 20 22 23 18 18 20 20 24 27 26 21 18 18 19 19 22 23 24 25 24 24 24 23 23 21 22 22 20 19 19 19 18
26 24 25 28 30 30 29 26 26 27 24 21 19 19 17 18 16 18 20 24 25 22 20 19 19 21 21 20 18 18 23 23 21 20 19 20 20 20 18 17 19 20 19
19 19 21 21 22 24 26 27 26 22 18 18 20 16 14 16 16 17 18 21 19 19 18 21 24 23 19 18 16 14 14 13 14 16 17 18 18 19 19 20 21 19 20
15 15 15 16 18 21 22 20 20 19 20 18 18 17 13 16 18 17 17 18 18 19 20 25 23 21 17 12 11 9 8 7 4 7 10 11 13 19 20 19 20 17 14
5 4 5 9 13 15 15 19 18 18 16 13 13 14 13 17 14 13 13 15 18 21 24 26 29 29 23 20 13 5 2 2 4 7 11 11 11 12 12 12 11 10 9
Wind_Direction
267 266 264 268 270 270 270 274 273 272 266 263 262 264 271 277 282 282 293 307 302 307 308 324 329 324 326 322 327 343 325 303 280 192 224 197 108 78 75 81 102 128 152
273 275 274 269 272 274 276 276 274 272 272 270 264 266 266 268 272 276 289 300 300 304 310 319 325 323 324 317 332 327 310 307 285 222 186 172 132 107 93 91 102 114 122
265 271 276 273 273 276 278 281 278 273 271 273 269 264 264 265 266 269 279 290 294 301 308 316 324 325 327 319 331 309 309 285 179 167 168 158 138 115 106 103 102 104 106
254 252 258 262 267 271 272 276 276 272 272 274 270 267 264 261 260 264 272 280 284 296 303 314 320 326 326 315 299 297 267 226 171 161 161 160 153 141 128 120 118 115 123
56 27 299 278 276 278 276 275 278 277 272 274 272 267 267 264 260 263 268 268 280 291 297 308 315 323 319 312 279 274 258 212 177 174 173 176 168 149 152 129 148 139 127
61 54 45 31 13 349 328 308 290 280 272 265 263 267 269 266 266 260 259 260 278 289 299 305 309 317 308 301 268 238 217 209 190 183 185 191 177 161 158 124 120 110 131
37 38 34 29 24 10 350 335 322 318 302 282 271 264 260 267 269 264 255 253 271 281 287 296 303 309 301 275 272 209 193 171 158 167 166 188 181 159 149 139 136 107 119
3 4 359 357 357 348 340 335 330 321 309 303 298 284 264 257 259 260 256 252 261 281 288 294 295 298 290 257 230 213 196 175 165 163 153 152 169 164 151 136 142 114 126
341 340 341 342 343 337 327 318 312 306 307 304 292 289 276 260 249 244 241 238 253 277 279 274 277 281 274 236 212 204 201 191 176 164 162 167 180 169 178 177 177 146 151
326 326 328 330 328 323 319 314 309 304 296 294 292 285 283 272 255 242 233 226 208 281 279 270 268 262 257 227 211 199 203 204 192 187 189 188 191 194 187 171 176 176 164
313 314 319 321 320 316 314 312 308 301 296 290 287 281 277 274 271 260 247 233 236 235 248 235 243 246 239 218 208 200 192 202 207 204 207 201 197 199 194 187 164 158 156
306 307 306 305 303 301 300 307 307 305 300 290 283 285 277 273 271 267 259 242 233 253 247 225 234 233 235 219 210 199 196 198 200 202 207 197 197 202 195 194 180 175 184
291 283 277 278 283 289 290 294 296 296 300 289 274 279 277 283 276 274 259 240 256 255 239 231 234 235 229 216 198 200 204 202 200 198 200 196 194 194 192 196 194 188 189
283 283 281 276 274 274 280 285 285 285 291 289 267 263 266 271 269 265 248 245 250 245 239 227 229 226 225 217 202 201 211 210 209 203 197 194 190 192 194 197 197 194 193
279 282 281 276 274 271 271 274 280 277 281 284 272 261 257 257 260 253 249 241 241 238 232 223 219 214 217 213 210 206 210 210 205 200 194 194 194 199 202 199 199 203 208
281 277 278 278 270 266 270 272 275 276 277 275 277 265 256 256 251 247 240 251 255 249 233 234 223 222 224 222 215 213 210 210 205 198 191 187 185 187 193 207 211 217 227
271 271 271 273 270 268 265 272 275 279 274 272 275 270 264 258 258 257 255 255 247 250 250 237 230 226 225 231 224 218 215 214 202 200 201 200 199 209 206 207 215 220 220
275 274 270 267 271 264 265 268 275 278 278 275 272 275 269 262 264 261 254 243 242 248 251 225 226 221 230 229 222 216 216 214 210 204 205 212 220 225 223 219 217 220 212
281 274 272 269 268 269 269 270 271 273 275 280 277 281 274 264 270 268 243 230 238 237 227 216 222 219 222 222 217 211 218 216 209 201 205 216 222 223 217 211 215 216 221
284 278 270 260 258 262 270 272 272 274 277 279 285 284 269 265 272 252 229 224 224 217 212 212 214 212 212 210 203 204 208 204 203 212 214 219 222 221 220 217 217 219 227
285 279 268 258 256 261 270 270 271 273 277 280 283 281 268 263 259 242 232 210 204 210 206 204 205 205 202 199 200 200 205 207 211 219 224 224 227 224 220 225 226 229 236
286 276 264 257 257 259 264 267 270 273 277 272 284 272 266 259 258 240 225 214 210 210 207 201 199 202 201 199 202 205 211 214 216 220 223 232 229 230 230 225 229 229 229
277 267 260 260 261 261 263 264 268 270 273 279 264 258 260 260 246 240 234 216 207 199 199 198 201 189 187 190 196 209 212 206 209 219 224 229 229 228 224 226 228 237 243
273 276 271 270 269 265 263 266 266 269 269 261 245 250 247 242 222 218 213 205 198 196 186 184 189 187 180 177 182 189 190 190 200 212 224 226 230 230 228 232 241 246 248
280 278 270 270 271 274 276 276 268 265 258 240 240 236 226 223 217 217 206 196 193 187 188 188 194 174 180 169 175 173 192 185 206 229 236 232 228 232 236 238 242 238 230
317 319 315 306 299 286 269 261 261 257 238 227 220 219 217 209 201 196 191 186 187 192 194 200 179 179 172 184 187 185 248 277 214 219 233 223 213 208 200 193 190 193 191
Height
1525 1528 1531 1533 1535 1537 1538 1539 1540 1541 1541 1540 1541 1542 1543 1544 1543 1542 1542 1541 1539 1539 1537 1534 1531 1527 1524 1522 1520 1519 1517 1516 1517 1517 1518 1516 1514 1514 1514 1514 1515 1516 1517
1521 1523 1526 1528 1530 1531 1532 1533 1535 1535 1536 1536 1537 1537 1537 1538 1539 1539 1539 1538 1537 1537 1535 1532 1529 1526 1523 1520 1519 1519 1517 1516 1516 1516 1518 1518 1516 1516 1516 1516 1516 1518 1519
1518 1520 1520 1522 1524 1525 1527 1528 1529 1530 1530 1532 1532 1532 1532 1533 1534 1535 1534 1534 1534 1532 1532 1530 1527 1525 1522 1521 1519 1518 1516 1516 1516 1515 1517 1519 1518 1518 1519 1519 1519 1520 1521
1512 1513 1514 1515 1517 1518 1519 1521 1522 1523 1524 1526 1526 1526 1526 1527 1528 1529 1530 1531 1530 1529 1528 1527 1525 1523 1521 1519 1518 1516 1515 1515 1517 1517 1518 1520 1520 1519 1520 1521 1522 1522 1523
1511 1511 1512 1512 1513 1513 1514 1514 1516 1518 1518 1520 1520 1520 1520 1521 1522 1524 1526 1527 1529 1526 1525 1523 1522 1520 1519 1517 1516 1516 1515 1514 1515 1518 1520 1521 1521 1521 1521 1522 1522 1523 1525
1512 1511 1512 1512 1513 1514 1513 1511 1511 1511 1511 1512 1513 1514 1514 1515 1517 1519 1521 1524 1523 1524 1524 1522 1520 1518 1516 1515 1514 1513 1513 1514 1514 1516 1520 1521 1521 1521 1522 1523 1524 1523 1525
1513 1513 1513 1512 1511 1511 1512 1511 1510 1509 1507 1507 1507 1507 1507 1510 1512 1514 1517 1519 1519 1520 1519 1516 1516 1515 1514 1514 1513 1512 1513 1513 1514 1516 1519 1522 1521 1523 1522 1524 1525 1524 1524
1516 1515 1515 1513 1508 1508 1509 1508 1507 1505 1503 1502 1502 1501 1501 1503 1505 1507 1509 1511 1514 1517 1518 1515 1513 1511 1510 1509 1510 1512 1512 1514 1514 1515 1517 1521 1524 1523 1525 1525 1526 1526 1526
1516 1514 1512 1508 1504 1505 1506 1505 1503 1500 1498 1497 1496 1495 1494 1494 1497 1498 1498 1502 1510 1512 1510 1502 1502 1504 1505 1507 1506 1507 1510 1512 1513 1515 1518 1518 1522 1522 1524 1525 1527 1528 1528
1513 1511 1507 1502 1501 1502 1501 1499 1497 1495 1492 1490 1489 1488 1488 1487 1488 1489 1490 1496 1501 1503 1501 1500 1498 1496 1499 1502 1503 1504 1506 1510 1512 1514 1516 1517 1520 1524 1524 1526 1527 1529 1530
1507 1504 1499 1497 1497 1498 1496 1494 1491 1488 1485 1483 1482 1481 1480 1479 1478 1479 1481 1484 1477 1477 1481 1485 1485 1491 1493 1495 1499 1500 1503 1506 1509 1512 1514 1515 1518 1522 1524 1525 1526 1528 1530
1496 1491 1490 1492 1493 1493 1491 1489 1486 1483 1479 1476 1475 1474 1474 1472 1470 1470 1468 1470 1475 1476 1477 1482 1481 1486 1492 1492 1495 1497 1499 1502 1504 1508 1511 1513 1515 1520 1522 1524 1525 1527 1529
1487 1487 1487 1488 1487 1486 1484 1482 1480 1477 1474 1471 1470 1468 1468 1468 1465 1463 1463 1470 1473 1473 1473 1475 1480 1485 1487 1492 1493 1496 1498 1498 1501 1503 1508 1511 1513 1517 1520 1523 1524 1525 1528
1480 1479 1479 1479 1479 1479 1477 1474 1472 1471 1468 1465 1464 1463 1463 1463 1461 1461 1460 1461 1463 1466 1469 1474 1475 1481 1484 1488 1489 1491 1496 1499 1501 1502 1504 1508 1509 1513 1517 1520 1522 1524 1525
1472 1471 1470 1469 1469 1468 1468 1466 1463 1462 1461 1458 1457 1457 1457 1456 1459 1459 1458 1459 1461 1463 1466 1470 1473 1475 1479 1481 1485 1486 1493 1495 1496 1500 1503 1506 1507 1510 1514 1518 1521 1524 1526
1460 1460 1459 1460 1459 1458 1457 1455 1454 1454 1453 1451 1449 1449 1449 1450 1451 1453 1455 1457 1459 1462 1463 1465 1469 1471 1476 1477 1481 1482 1487 1490 1493 1496 1499 1503 1505 1508 1511 1514 1517 1520 1524
1449 1448 1448 1449 1449 1449 1448 1446 1443 1444 1443 1443 1441 1440 1440 1442 1442 1444 1445 1448 1450 1453 1453 1457 1461 1465 1469 1474 1477 1478 1482 1486 1489 1493 1498 1500 1501 1506 1508 1512 1514 1516 1519
1439 1438 1437 1438 1439 1440 1440 1438 1436 1434 1432 1434 1434 1433 1432 1431 1432 1433 1433 1437 1438 1441 1443 1448 1453 1458 1463 1468 1471 1474 1478 1481 1485 1489 1495 1498 1499 1500 1504 1507 1510 1513 1515
1428 1427 1427 1427 1428 1430 1429 1429 1428 1426 1424 1424 1425 1424 1423 1422 1422 1421 1422 1425 1428 1432 1436 1441 1446 1451 1456 1461 1464 1468 1473 1476 1480 1485 1489 1493 1495 1497 1499 1502 1507 1510 1514
1418 1418 1417 1416 1417 1418 1418 1418 1418 1417 1416 1416 1416 1415 1415 1414 1414 1413 1414 1417 1421 1426 1431 1436 1440 1445 1449 1454 1458 1463 1467 1472 1476 1482 1484 1487 1490 1493 1495 1498 1501 1505 1509
1407 1406 1405 1406 1406 1408 1409 1408 1409 1408 1408 1408 1408 1407 1408 1407 1408 1409 1409 1412 1416 1421 1427 1431 1435 1439 1443 1449 1454 1459 1464 1468 1472 1476 1479 1481 1484 1490 1491 1493 1497 1499 1502
1396 1395 1395 1396 1397 1398 1400 1400 1400 1400 1401 1401 1400 1400 1402 1402 1402 1404 1406 1408 1412 1417 1422 1427 1431 1435 1440 1444 1450 1455 1460 1462 1468 1471 1474 1476 1479 1484 1488 1490 1493 1494 1496
1388 1386 1387 1387 1388 1390 1391 1392 1392 1393 1393 1394 1393 1394 1395 1397 1398 1400 1402 1404 1409 1412 1418 1423 1428 1433 1438 1444 1447 1451 1456 1457 1461 1466 1468 1472 1475 1478 1482 1484 1487 1489 1491
1382 1381 1381 1381 1382 1382 1383 1384 1384 1385 1386 1387 1388 1389 1389 1392 1394 1397 1400 1402 1405 1411 1415 1421 1426 1430 1435 1440 1444 1449 1451 1452 1455 1458 1465 1468 1470 1473 1477 1479 1482 1483 1485
1379 1377 1376 1376 1376 1376 1377 1377 1377 1379 1380 1380 1382 1384 1386 1390 1392 1395 1398 1402 1405 1410 1415 1419 1425 1427 1432 1435 1443 1445 1451 1450 1449 1455 1461 1463 1466 1471 1473 1474 1477 1477 1479
1376 1376 1375 1374 1372 1371 1371 1371 1372 1373 1373 1375 1378 1381 1384 1388 1391 1394 1396 1399 1403 1406 1412 1417 1416 1421 1427 1431 1438 1440 1450 1447 1447 1451 1459 1461 1465 1467 1469 1469 1471 1474 1474